Content
SEND FEEDBACK

Daily
Averages
Monthly
Summary
Mexico

PLAYA DEL CARMEN, QUINTANA ROO


Home > North America > Mexico > Quintana Roo
Elevation: 30 feet     Latitude: 20 38N     Longitude: 087 04W

WEATHER
 
SELECT A DAY
Number of Records: 196,832;   Date Range: 2/21/06 - 9/18/14
 
SHARE

PRINT THIS DATA

[ ← Previous Day ]
WEATHER ALMANAC - APRIL 10, 2013
[ Next Day → ]
[ °C ]   °F
Weather ElementAverageHighLow
Temperature73.3 °F89.6 °F (4:35 pm) (9:55 pm)
Dewpoint40.6 °F69.8 °F (9:35 pm) (7:00 pm)
Humidity55.2 %100 % (2:55 am)33 % (4:35 pm)
Barometer30.07 in30.15 in (12:35 am)29.99 in (6:35 pm)
Wind Speed4.4 mph17.3 mph (9:35 pm)
Wind Gust29.9 mph (9:35 pm)
Weather ElementAverage
Visibility9.4 mi
Wind DirectionE (85.4 °)

Weather ElementTotal
Precipitation0.74 in
Heating Degree Days20.2 (Base 65)
Averaged from 69 records on April 10, 2013
WEATHER CONDITIONS BREAKOUT
WIND DIRECTION BREAKOUT
WEATHER BY HOUR - APRIL 10, 2013
[ °C ]   °F
Local TimeTemperatureDewpointHumidityBarometerVisibilityWind DirectionWind SpeedGust SpeedPrecipitationEventsConditions
12:35 AM68.0 °F59.0 °F73 %30.15 in10.0 miEast (90°)3.5 mphClear
12:55 AM68.0 °F60.8 °F78 %30.15 in10.0 miEast (90°)4.6 mphClear
1:15 AM68.0 °F60.8 °F78 %30.14 in10.0 miEast (100°)4.6 mphClear
1:35 AM66.2 °F60.8 °F83 %30.14 in10.0 miEast (100°)3.5 mphClear
1:55 AM66.2 °F60.8 °F83 %30.14 in10.0 miEast (100°)3.5 mphClear
2:15 AM66.2 °F60.8 °F83 %30.13 in10.0 miESE (110°)3.5 mphClear
2:35 AM64.4 °F62.6 °F94 %30.13 in10.0 miCalmClear
2:55 AM64.4 °F64.4 °F100 %30.12 in10.0 miCalmClear
3:15 AM64.4 °F64.4 °F100 %30.11 in10.0 miCalmClear
3:35 AM62.6 °F0.0 °F30.11 in10.0 miCalmClear
3:55 AM62.6 °F0.0 °F30.11 in10.0 miCalmClear
4:15 AM62.6 °F0.0 °F30.11 in10.0 miCalmClear
4:35 AM60.8 °F0.0 °F30.11 in10.0 miCalmClear
4:55 AM60.8 °F0.0 °F30.11 in7.0 miENE (60°)3.5 mphClear
5:15 AM60.8 °F0.0 °F30.10 in10.0 miENE (70°)3.5 mphClear
5:35 AM60.8 °F0.0 °F30.10 in10.0 miENE (70°)3.5 mphClear
5:55 AM60.8 °F0.0 °F30.10 in7.0 miCalmClear
6:15 AM60.8 °F0.0 °F30.10 in10.0 miENE (70°)3.5 mphClear
6:35 AM62.6 °F0.0 °F30.10 in10.0 miENE (70°)4.6 mphClear
6:55 AM62.6 °F0.0 °F30.09 in10.0 miENE (70°)3.5 mphClear
7:15 AM62.6 °F0.0 °F30.09 in10.0 miEast (80°)4.6 mphClear
7:35 AM62.6 °F0.0 °F30.10 in10.0 miENE (70°)3.5 mphClear
7:55 AM64.4 °F0.0 °F30.11 in10.0 miENE (70°)3.5 mphScattered Clouds
8:35 AM68.0 °F0.0 °F30.11 in10.0 miEast (80°)4.6 mphScattered Clouds
8:55 AM71.6 °F0.0 °F30.11 in10.0 miEast (80°)5.8 mphClear
9:15 AM73.4 °F68.0 °F83 %30.12 in10.0 miEast (100°)6.9 mphClear
9:35 AM73.4 °F66.2 °F78 %30.12 in10.0 miEast (100°)6.9 mphClear
9:55 AM77.0 °F66.2 °F69 %30.12 in10.0 miEast (100°)9.2 mphClear
10:15 AM77.0 °F66.2 °F69 %30.12 in10.0 miESE (120°)6.9 mphClear
10:35 AM78.8 °F64.4 °F61 %30.12 in10.0 miSSE (150°)6.9 mphClear
10:55 AM80.6 °F64.4 °F58 %30.12 in10.0 miSE (140°)9.2 mph16.1 mphClear
11:15 AM80.6 °F64.4 °F58 %30.12 in10.0 miSE (140°)8.1 mphClear
11:35 AM80.6 °F62.6 °F54 %30.12 in10.0 miSSE (150°)8.1 mphScattered Clouds
11:55 AM82.4 °F62.6 °F51 %30.11 in10.0 miSE (130°)8.1 mphScattered Clouds
12:15 PM80.6 °F62.6 °F54 %30.10 in10.0 miSouth (170°)4.6 mphScattered Clouds
12:35 PM84.2 °F59.0 °F42 %30.10 in10.0 miSE (130°)5.8 mphScattered Clouds
1:15 PM86.0 °F59.0 °F40 %30.09 in10.0 miESE (120°)8.1 mphScattered Clouds
1:35 PM86.0 °F59.0 °F40 %30.08 in10.0 miSouth (190°)4.6 mphScattered Clouds
1:55 PM86.0 °F57.2 °F37 %30.07 in10.0 miESE (110°)6.9 mphScattered Clouds
2:15 PM87.8 °F57.2 °F35 %30.07 in10.0 miSouth (190°)5.8 mphMostly Cloudy
2:35 PM86.0 °F57.2 °F37 %30.07 in10.0 miSouth (190°)8.1 mphMostly Cloudy
2:55 PM87.8 °F57.2 °F35 %30.06 in10.0 miCalmScattered Clouds
3:15 PM86.0 °F57.2 °F37 %30.06 in10.0 miEast (100°)4.6 mphScattered Clouds
3:35 PM87.8 °F57.2 °F35 %30.04 in10.0 miSSE (160°)6.9 mphScattered Clouds
3:55 PM86.0 °F57.2 °F37 %30.04 in10.0 miEast (100°)4.6 mphScattered Clouds
4:15 PM87.8 °F57.2 °F35 %30.02 in10.0 miSE (140°)3.5 mphScattered Clouds
4:35 PM89.6 °F57.2 °F33 %30.02 in10.0 miSE (130°)5.8 mphClear
4:55 PM87.8 °F57.2 °F35 %30.02 in10.0 miNNE (30°)3.5 mphScattered Clouds
5:15 PM89.6 °F57.2 °F33 %30.01 in10.0 miENE (70°)4.6 mphClear
5:35 PM89.6 °F57.2 °F33 %30.01 in10.0 miNNE (20°)5.8 mphClear
5:55 PM89.6 °F57.2 °F33 %30.00 in10.0 miSE (130°)4.6 mphScattered Clouds
6:15 PM87.8 °F57.2 °F35 %30.00 in10.0 miCalmScattered Clouds
6:35 PM87.8 °F57.2 °F35 %29.99 in10.0 miESE (120°)3.5 mphClear
6:55 PM86.0 °F59.0 °F40 %29.99 in10.0 miCalmClear
7:15 PM84.2 °F59.0 °F42 %29.99 in10.0 miENE (70°)3.5 mphClear
7:35 PM84.2 °F59.0 °F42 %29.99 in10.0 miENE (70°)3.5 mphScattered Clouds
7:55 PM82.4 °F60.8 °F48 %30.00 in10.0 miEast (90°)3.5 mphMostly Cloudy
8:15 PM82.4 °F60.8 °F48 %30.00 in10.0 miCalmOvercast
8:35 PM84.2 °F62.6 °F48 %30.02 in10.0 miSSE (150°)6.9 mphOvercast
8:55 PM82.4 °F66.2 °F58 %30.02 in10.0 miESE (120°)11.5 mphOvercast
9:15 PM80.6 °F68.0 °F65 %30.03 in10.0 miSSE (150°)11.5 mph19.6 mphOvercast
9:35 PM71.6 °F69.8 °F94 %30.07 in2.0 miSouth (190°)17.3 mph29.9 mph0.13 inRainHeavy Rain
9:55 PM0.0 °F0.0 °F30.04 in2.5 miEast (90°)3.5 mph0.58 inRainRain
10:15 PM0.0 °F0.0 °F30.03 in7.0 miSE (140°)4.6 mph0.01 inRainLight Rain
10:35 PM69.8 °F0.0 °F30.04 in7.0 miCalm0.01 inClear
10:55 PM71.6 °F0.0 °F30.03 in10.0 miCalm0.01 inScattered Clouds
11:15 PM71.6 °F0.0 °F30.04 in5.0 miCalmHaze
11:35 PM71.6 °F0.0 °F30.04 in7.0 miSE (140°)3.5 mphOvercast
11:55 PM71.6 °F0.0 °F30.03 in7.0 miENE (70°)3.5 mphOvercast
Hourly data recorded from KPCM, located miles away from Playa del Carmen, Quintana Roo







STORIES FROM OUR PARTNERS